Location: Central Falls
(41.8900°N, 71.3929°W)
Time: 16:10:40
(UTC+00:00)

Vanguard 1 - Pass Details

Date: 09 December 2023
Orbit: 653 x 3826 km, 34.3° (Epoch: 24 February)

Event Time Altitude Azimuth Distance (km) Brightness Sun altitude
Rises 02:54:55 0° 280° (W) 6,943 14.8 -61.3°
Reaches altitude 10° 02:59:16 10° 276° (W) 6,235 14.4 -62.0°
Enters shadow 03:12:24 42° 246° (WSW) 4,697 13.3 -63.9°
Maximum altitude 03:19:23 50° 210° (SSW) 4,460 - -64.9°
Drops below altitude 10° 03:39:54 10° 142° (SE) 6,304 - -67.4°
Sets 03:44:23 0° 137° (SE) 7,016 - -67.9°
